YO8RXT-3 Weather Reports


time (UTC)temp
F
wind
direction
speed
knots
gust
knots
rain 1hr
in
rain 24hr
in
rain mn
in
humidity
%
barometer
mb
20260509040501 57 310 4.3 0.0 0.00 0.00 0.00 94 1016.0
20260509033502 57 310 2.6 0.0 0.00 0.00 0.00 94 1016.0
20260509030502 57 280 2.6 0.0 0.00 0.00 0.00 94 1016.0
20260509023502 55 290 1.7 0.0 0.00 0.00 0.00 100 1016.0
20260509020502 55 120 0.9 0.0 0.00 0.00 0.00 94 1016.0
20260509013501 55 130 1.7 0.0 0.00 0.00 0.00 94 1016.0
20260509010502 54 0.9 0.0 0.00 0.00 0.00 100 1016.0
20260509003502 54 320 2.6 0.0 0.00 0.00 0.00 100 1016.0
20260509000503 54 270 1.7 0.0 0.00 0.00 0.00 100 1016.0
20260508233502 55 310 1.7 0.0 0.00 0.00 0.00 100 1016.0
20260508230503 55 290 0.9 0.0 0.00 0.00 0.00 94 1017.0
20260508223502 57 290 0.9 0.0 0.00 0.00 0.00 94 1016.0
20260508220502 57 1.7 0.0 0.00 0.00 0.00 94 1017.0
20260508213503 57 190 0.9 0.0 0.00 0.00 0.00 94 1016.0
20260508210502 57 180 2.6 0.0 0.00 0.00 0.00 94 1016.0
20260508203503 57 330 7.0 0.0 0.00 0.00 0.00 94 1016.0
20260508200502 57 0.9 0.0 0.00 0.00 0.00 94 1016.0
20260508193502 59 70 2.6 0.0 0.00 0.00 0.00 88 1016.0
20260508190501 59 60 2.6 0.0 0.00 0.00 0.00
20260508183503 59 360 4.3 0.0 0.00 0.00 0.00 94 1016.0
20260508180502 59 340 5.2 0.0 0.00 0.00 0.00 94 1016.0
20260508173502 59 110 2.6 0.0 0.00 0.00 0.00 94 1015.0
20260508170502 61 90 4.3 0.0 0.00 0.00 0.00 88 1015.0
20260508163502 61 80 5.2 0.0 0.00 0.00 0.00 94 1015.0
20260508160502 61 150 4.3 0.0 0.00 0.00 0.00 88 1015.0
20260508153505 61 150 5.2 0.0 0.00 0.00 0.00 94 1015.0
20260508150502 0 0.0 0.0 0.00 0.00 0.00
20260508143502 59 320 9.6 0.0 0.00 0.00 0.00 88 1015.0
20260508140502 0 320 9.6 0.0 0.00 0.00 0.00
20260508133502 73 120 7.8 0.0 0.00 0.00 0.00 50 1014.0
20260508130502 73 120 7.8 0.0 0.00 0.00 0.00 50 1014.0
20260508123503 73 100 9.6 0.0 0.00 0.00 0.00 53 1014.0
20260508120502 73 100 11.3 0.0 0.00 0.00 0.00 53 1014.0
20260508113502 72 90 11.3 0.0 0.00 0.00 0.00 57 1014.0
20260508110502 72 90 11.3 0.0 0.00 0.00 0.00 57 1014.0
20260508103503 70 100 11.3 0.0 0.00 0.00 0.00 60 1015.0
20260508100502 68 110 7.8 0.0 0.00 0.00 0.00 64 1015.0
20260508093502 66 110 8.7 0.0 0.00 0.00 0.00 64 1015.0
20260508090503 64 140 6.1 0.0 0.00 0.00 0.00 68 1015.0
20260508083502 63 130 4.3 0.0 0.00 0.00 0.00 73 1016.0
20260508080502 61 130 4.3 0.0 0.00 0.00 0.00 77
20260508073502 59 130 6.1 0.0 0.00 0.00 0.00 77 1015.0
20260508070502 57 130 7.0 0.0 0.00 0.00 0.00 82 1015.0
20260508063502 55 110 9.6 0.0 0.00 0.00 0.00 82 1015.0
20260508060502 54 110 9.6 0.0 0.00 0.00 0.00 88 1015.0
20260508053503 52 100 9.6 0.0 0.00 0.00 0.00 94 1015.0
20260508050502 52 110 9.6 0.0 0.00 0.00 0.00 88 1015.0
20260508043503 52 110 8.7 0.0 0.00 0.00 0.00 82 1015.0